Regional Weather Roundup
Issued by NWS Charleston, SC

Current Version | Previous Version | Graphics & Text | Print | Product List | Glossary On
Versions: 1 2 3 4 5 6 7 8 9 10 11 12 13 14 15 16 17 18 19 20 21 22 23 24 25 26 27 28 29 30 31 32 33 34 35 36 37 38 39 40 41 42 43 44 45 46 47 48 49 50
000 ASUS42 KCHS 300412 RWRCHS REGIONAL WEATHER ROUNDUP NATIONAL WEATHER SERVICE CHARLESTON SC 1200 AM EDT SAT MAY 30 2015 NOTE: "FAIR" INDICATES FEW OR NO CLOUDS BELOW 12,000 FEET WITH NO SIGNIFICANT WEATHER AND/OR OBSTRUCTIONS TO VISIBILITY. NOT ALL STATIONS ARE QUALITY CONTROLLED BY THE NATIONAL WEATHER SERVICE. USE DATA WITH CAUTION...ESPECIALLY DEWPOINT OBSERVATIONS. SCZ027-030-031-034>040-042>050-300500- ...SOUTHEAST SOUTH CAROLINA... CITY SKY/WX TMP DP RH WIND PRES REMARKS N CHARLESTON PTCLDY 72 68 87 NE5 30.18F WATERFRONT PAR N/A 76 72 87 E7 30.15F MOUNT PLEASANT LGT RAIN 70 70 100 CALM 30.18F JOHNS ISLAND PTCLDY 73 70 88 CALM 30.18F PINOPOLIS N/A 73 70 88 CALM 30.11S MONCKS CORNER FAIR 68 66 94 CALM 30.18F SUMMERVILLE FAIR 68 68 100 CALM 30.19F BEAUFORT MCAS CLEAR 74 68 81 E6 30.17F BEAUFORT ARPT FAIR 73 70 88 CALM 30.16F HILTON HEAD IS CLEAR 75 70 83 NE5 30.17F WALTERBORO CLEAR 68 64 88 CALM 30.18F ALLENDALE FAIR 72 68 88 CALM 30.17F ...SOUTHERN MIDLANDS AND PEE DEE... CITY SKY/WX TMP DP RH WIND PRES REMARKS GEORGETOWN NOT AVBL KINGSTREE NOT AVBL ORANGEBURG CLEAR 72 65 78 SE3 30.19F BARNWELL FAIR 73 66 78 E5 30.19S AIKEN FAIR 70 61 73 SE3 30.22S MANNING FAIR 66 54 63 CALM 30.19F COLUMBIA PTCLDY 74 63 68 SE5 30.18S SUMTER CLEAR 71 67 87 SE3 30.17F FLORENCE MOCLDY 73 67 81 CALM 30.20S MYRTLE BEACH MOCLDY 75 68 78 SE12 30.22S N MYRTLE BEACH MOCLDY 76 69 79 SE5 30.20S $$ GAZ063-065-086>088-099>101-113>116-118-119-134>141-150-300500- ...SOUTHEAST GEORGIA... CITY SKY/WX TMP DP RH WIND PRES REMARKS SAVANNAH ARPT PTCLDY 73 67 81 E6 30.16F HUNTER AAF CLEAR 74 71 90 E5 30.13F FORT STEWART PTCLDY 70 67 91 CALM 30.13F STATESBORO CLEAR 69 69 100 CALM 30.17S SYLVANIA CLEAR 72 70 93 CALM 30.18S CLAXTON FAIR 70 68 94 CALM 30.16F ...CSRA...CENTRAL AND FAR SOUTHEAST GEORGIA... CITY SKY/WX TMP DP RH WIND PRES REMARKS THOMSON CLEAR 74 69 84 E3 30.21F AUGUSTA-BUSH PTCLDY 71 65 81 SE6 30.16F AUGUSTA-DANIEL PTCLDY 76 65 68 SE6 30.18F SWAINSBORO FAIR 75 68 78 SE5 30.18R VIDALIA CLOUDY 73 68 83 SE5 30.17R EASTMAN MOCLDY 75 68 79 SE3 30.18R HAZLEHURST FAIR 74 69 85 CALM 30.15S ALMA CLOUDY 71 66 84 CALM 30.15S WAYCROSS MOCLDY 71 69 92 CALM 30.14S JESUP CLOUDY 75 70 83 E3 30.15S BAXLEY CLOUDY 77 68 73 E5 30.15S BRUNSWICK CLEAR 70 68 94 CALM 30.15F SAINT SIMONS NOT AVBL $$ SCZ027-028-034-036>038-045-046-048>050-GAZ119-141-300500- ...LAKE AND SUPPLEMENTAL COASTAL OBSERVATIONS... STATION/POSITION TIME TEMP WIND PRES WAVE SWELL AIR SEA DIR/SP/G HT/PER HT/PER/DIR (UTC) (F) (DEG/KT/KT) (MB) (FT/S) (FT/S/D) UPR LAKE MARION NOT AVBL WINYAH BAY 0245 76 100/ 6 1022.0 LAKE MURRAY 0300 77 150/ 9/ 11 1021.7R ACE BASIN NERRS NOT AVBL FORT PULASKI 0300 77 80 70/ 13/ 16 1021.9R SAPELO ISLAND 0300 72 50/ 4 1021.0S $$ ANZ835-935-AMZ111-154-330-350-352-354-370-450-454-472-300500- ...C-MAN AND BUOY OBSERVATIONS... STATION/POSITION TIME TEMP WIND PRES WAVE SWELL AIR SEA DIR/SP/G HT/PER HT/PER/DIR (UTC) (F) (DEG/KT/KT) (MB) (FT/S) (FT/S/D) BUOY 41004 0350 77 78 90/ 12/ 16 1021.3F 5/ 9 3/ 9 BUOY 41008 0350 77 78 110/ 4/ 6 1021.1F 3/10 3/100/10 FOLLY BEACH CMAN 0300 76 80/ 8/ 10 1022.2R CAPERS NEARSHORE 0308 76 90/ 10/ 14 1022.2S FRIPP NEARSHORE 0300 77 90/ 14/ 16 1021.5R STATION/POSITION TIME TEMP WIND PRES WAVE SWELL AIR SEA DIR/SP/G HT/PER HT/PER/DIR (UTC) (F) (DEG/KT/KT) (MB) (FT/S) (FT/S/D) 5E ST. MARYS GA 0321 80 N/A 3/10 FRYING PAN BUOY 0350 77 75 130/ 12/ 14 1023.0F 4/ 8 3/110/ 8 BUOY 41025 0350 76 80 120/ 12/ 16 1023.5F 4/ 8 3/110/ 8 CAPE LOOKOUT NC 0300 75 130/ 9/ 10 1023.2R BUOY 41002 0350 74 75 80/ 16/ 17 1022.1F 6/ 9 5/ 80/ 9 BUOY 41010 0320 78 81 80/ 14/ 16 1019.4F ST AUGUSTINE FL 0400 76 79 50/ 11/ 11 1020.6F $$

USA.gov is the U.S. government's official web portal to all federal, state and local government web resources and services.